Location: Niedergestelen
(46.3129°N, 7.7822°E)
Time: 08:30:51
(UTC+00:00)

COSMOS 2251 DEB - Visible Passes

Search period start: 21 June 2021 00:00
Search period end: 01 July 2021 00:00
Orbit: 711 x 747 km, 74.1° (Epoch: 20 June)

Date Brightness Start Highest point End Pass type
(mag) Time Alt. Az. Time Alt. Az. Time Alt. Az.
21 Jun ? 01:02:41 19° WSW 01:05:31 33° WNW 01:09:59 10° N visible
21 Jun ? 22:35:11 16° ESE 22:35:55 16° E 22:38:53 10° ENE visible
22 Jun ? 00:14:37 36° SW 00:16:32 66° WNW 00:21:28 10° NNE visible
22 Jun ? 01:57:06 10° WNW 01:58:46 11° NW 02:00:26 10° NNW visible
22 Jun ? 23:26:30 44° SSE 23:27:46 58° ESE 23:32:38 10° NNE visible
23 Jun ? 01:05:55 11° W 01:09:23 21° NW 01:13:08 10° N visible
23 Jun ? 22:38:21 26° ESE 22:39:13 27° E 22:43:21 10° NE visible
24 Jun ? 00:17:46 24° WSW 00:20:14 40° WNW 00:24:54 10° N visible
24 Jun ? 21:50:11 12° ESE 21:50:51 13° E 21:52:55 10° ENE visible
24 Jun ? 23:29:36 42° SSW 23:31:18 83° WNW 23:36:18 10° NNE visible
25 Jun ? 01:10:49 10° WNW 01:13:21 14° NW 01:15:54 10° NNW visible
25 Jun ? 22:41:24 38° SE 22:42:36 46° ESE 22:47:20 10° NNE visible
26 Jun ? 00:20:48 14° WSW 00:24:02 25° NW 00:28:09 10° N visible
26 Jun ? 21:53:10 21° ESE 21:54:06 22° E 21:57:51 10° NE visible
26 Jun ? 23:32:34 27° SW 23:34:58 49° WNW 23:39:47 10° NNE visible
27 Jun ? 22:44:17 40° S 22:46:06 80° ESE 22:51:04 10° NNE visible
28 Jun ? 00:24:49 10° W 00:27:58 17° NW 00:31:07 10° N visible
28 Jun ? 21:55:57 30° SE 21:57:27 37° ESE 22:01:59 10° NE visible
28 Jun ? 23:35:21 15° WSW 23:38:43 30° WNW 23:43:06 10° N visible
29 Jun ? 21:07:35 15° ESE 21:09:01 17° E 21:12:13 10° NE visible
29 Jun ? 22:46:59 26° SW 22:49:42 61° WNW 22:54:38 10° NNE visible
30 Jun ? 00:30:46 10° WNW 00:32:01 11° NW 00:33:15 10° NNW visible
30 Jun ? 21:58:33 30° S 22:00:54 63° ESE 22:05:49 10° NNE visible
30 Jun ? 23:38:58 10° W 23:42:35 20° NW 23:46:13 10° N visible
